Wind_Speed
57 57 56 56 56 57 57 57 58 58 59 59 60 61 62 63 64 64 64 63 63 62 61 60 60 59 59 59 59 59 59 59 59 58 57 57 57 56 57 57 58 58 59 61 62 63 64 65 66 67 69 70 71 73 74 75 76 77 78 79 80 81 81 82 83 84 84 85 86 86 87 87 87 87 87 86 86 86 86 86 86 86 86 86 86 86
62 63 63 63 63 64 64 65 65 65 65 66 66 67 67 68 68 69 68 68 68 67 66 65 64 63 62 61 60 60 59 59 58 58 57 57 58 58 59 59 60 61 62 63 64 66 67 68 69 70 71 72 74 75 76 77 78 79 80 81 81 82 83 84 84 85 86 86 86 87 87 87 87 87 87 87 87 87 87 87 87 87 87 87 88 88
67 68 69 69 69 69 69 70 70 70 70 70 70 70 69 69 68 68 68 68 68 68 68 67 66 65 64 63 62 61 61 60 60 60 60 61 62 63 63 64 65 66 66 67 68 69 70 71 72 73 74 75 76 77 77 78 79 80 81 82 82 83 84 85 86 86 87 87 87 88 88 88 88 88 88 88 88 88 88 88 89 89 89 90 90 90
70 71 72 72 72 72 72 72 72 72 72 72 72 71 70 69 68 67 67 66 67 67 68 67 67 66 65 64 64 64 64 64 64 65 66 66 67 67 68 68 69 69 70 70 71 72 72 73 74 75 75 76 77 77 78 79 80 81 81 82 83 84 85 86 87 87 88 88 88 89 89 89 89 89 89 89 90 90 90 90 91 91 91 91 91 91
70 70 72 72 72 72 72 72 72 73 73 73 72 72 71 70 69 68 68 67 67 68 68 68 68 68 68 68 68 68 68 68 69 69 70 70 70 70 71 71 71 72 72 72 73 73 74 74 75 75 76 76 77 78 79 80 81 81 82 83 84 85 86 87 87 88 88 89 89 89 89 90 90 90 90 90 91 91 92 92 92 92 92 92 91 91
70 70 71 71 71 71 72 71 72 72 72 72 72 72 71 70 70 70 70 70 70 70 70 71 71 71 71 71 71 71 71 71 71 71 71 71 71 72 72 72 72 72 73 73 73 74 74 75 75 76 76 77 78 79 80 80 81 82 83 84 85 85 86 87 87 88 88 89 89 89 89 90 90 90 90 91 91 91 92 92 91 91 91 90 90 89
70 70 70 70 71 71 70 70 70 70 70 70 71 71 70 70 70 70 71 71 71 71 72 72 72 72 72 72 72 72 72 71 71 71 71 71 71 71 71 71 72 72 72 73 73 74 74 75 75 76 77 78 79 79 80 81 82 83 84 84 85 85 86 86 87 87 88 88 88 88 89 89 89 90 90 90 90 90 90 90 89 89 88 87 86 85
70 70 70 70 70 70 70 69 69 69 69 69 69 70 70 70 70 70 70 70 70 71 71 71 72 72 72 72 71 71 71 70 70 70 70 70 70 70 70 70 71 71 72 72 73 73 74 75 76 77 77 78 79 80 81 82 83 83 84 84 85 85 86 86 86 87 87 87 87 87 88 88 88 88 88 88 87 87 87 86 85 85 84 83 82 81
69 69 69 69 69 68 68 69 69 69 68 68 68 68 68 68 68 69 68 68 68 69 69 69 69 70 70 70 69 69 69 69 69 69 69 69 69 69 69 70 70 71 72 72 73 74 75 76 76 77 78 79 80 81 82 82 83 84 84 84 85 85 85 85 86 86 86 86 86 86 85 85 85 85 84 84 83 83 82 82 81 81 81 80 79 78
68 68 68 68 68 67 67 67 68 68 67 66 67 67 67 66 66 66 66 66 66 66 66 66 66 67 68 68 68 68 68 68 68 68 68 69 69 69 70 70 71 72 72 73 74 75 76 77 77 78 79 80 81 82 82 83 83 84 84 84 84 84 84 84 84 83 83 83 82 82 81 81 80 80 79 79 79 79 78 78 78 78 77 76 74 73
67 67 66 66 67 66 66 66 67 66 65 64 64 65 65 64 64 64 64 64 65 65 64 64 65 65 66 66 66 66 67 67 68 68 69 69 70 70 71 71 72 73 73 74 75 76 77 78 78 79 80 81 81 82 82 83 83 83 83 83 82 82 81 81 80 79 78 78 77 76 76 76 75 75 75 75 75 75 75 75 74 73 72 70 68 66
65 65 65 64 64 64 64 64 65 64 63 62 62 62 63 63 63 62 61 62 63 63 63 63 63 64 64 65 66 66 66 67 68 68 69 70 71 71 72 73 73 74 75 75 76 77 78 78 79 80 80 81 81 81 82 81 81 81 80 79 78 77 76 75 74 73 73 72 72 71 71 72 72 72 72 72 72 71 70 69 68 66 64 62 60 59
64 63 63 63 62 62 62 62 62 62 62 61 61 61 61 62 62 61 61 62 62 62 62 62 63 64 64 65 65 66 67 67 68 69 70 71 71 72 73 73 74 75 76 76 77 78 79 79 79 80 80 80 80 79 79 78 77 76 75 74 73 71 70 69 68 68 67 67 68 68 68 68 68 68 68 67 66 65 64 62 60 58 57 56 55 54
62 62 61 61 61 61 61 61 60 61 61 61 61 61 61 62 61 61 61 62 62 63 62 62 63 64 65 65 66 66 67 68 69 70 70 71 72 73 73 74 75 76 76 76 77 78 78 78 78 78 78 77 76 75 74 73 72 70 69 67 66 65 64 64 63 64 64 65 65 65 65 64 64 63 62 61 60 58 57 55 54 54 53 53 53 53
60 60 59 59 60 60 60 60 60 60 61 61 61 61 61 61 61 61 61 62 63 63 63 63 64 65 66 66 67 67 67 68 69 70 71 72 73 73 74 74 74 75 75 75 75 76 76 75 74 73 73 71 70 69 67 66 65 63 62 61 60 60 60 60 61 62 62 62 62 62 61 60 59 59 58 56 55 54 53 52 51 51 51 51 51 51
60 59 59 59 59 60 60 60 60 60 61 62 61 61 61 61 62 62 62 62 63 63 63 63 64 65 66 67 67 67 67 68 69 70 70 71 72 73 72 71 71 72 72 71 71 71 70 69 68 66 65 64 63 62 60 59 58 57 57 57 57 58 58 59 60 60 60 60 59 58 58 57 56 56 55 53 52 51 50 50 49 49 49 49 49 49
59 59 59 59 59 59 59 59 60 60 61 61 61 61 61 61 62 62 62 62 62 63 63 63 63 64 65 66 66 66 66 66 66 67 67 67 68 69 68 66 66 66 66 65 64 63 63 62 61 59 58 57 56 56 55 55 55 55 55 55 56 57 57 58 58 58 58 57 57 56 56 55 55 54 53 52 50 49 49 48 48 48 48 48 48 48
58 58 58 58 58 58 59 59 59 59 60 60 60 60 60 60 61 61 61 61 61 61 62 62 62 62 63 63 64 64 63 61 61 62 62 62 62 62 61 59 58 58 58 58 57 56 55 55 54 54 53 53 53 53 53 54 54 54 54 55 55 56 56 56 56 56 56 56 56 55 55 54 54 53 51 50 49 48 48 48 48 48 48 48 48 48
58 58 57 57 57 57 57 57 57 58 58 58 59 59 59 59 59 59 59 59 59 59 59 59 59 59 59 59 59 59 58 55 55 55 55 55 55 55 55 53 52 52 52 52 52 51 51 51 51 51 51 52 52 53 53 53 53 53 54 54 55 55 55 55 55 56 56 56 55 55 54 53 52 51 50 49 48 48 48 48 48 49 49 49 49 49
56 56 55 55 55 55 55 56 56 56 56 56 56 56 56 56 56 56 56 56 56 55 55 54 54 54 54 54 54 54 53 51 49 50 50 50 50 51 51 50 49 49 50 50 50 50 49 50 51 51 52 52 53 53 53 53 53 53 53 54 54 54 54 55 55 55 56 55 55 54 53 52 51 50 49 48 48 48 49 49 50 50 50 50 50 50
53 53 53 53 52 52 52 53 53 53 52 52 52 52 52 52 52 52 52 51 51 51 50 50 50 50 50 49 49 50 49 48 47 47 48 48 48 49 49 49 48 48 49 50 50 50 50 50 51 52 52 52 52 53 52 52 52 52 53 53 53 54 54 55 55 55 55 55 54 53 52 51 50 49 49 49 49 50 50 51 51 51 51 51 51 51
50 50 50 50 49 49 49 50 49 49 48 48 48 48 49 48 48 48 48 47 47 47 47 47 47 47 47 47 47 48 48 47 46 46 46 46 47 48 49 48 48 48 49 50 50 50 50 51 51 52 52 52 52 52 52 51 52 52 52 52 53 53 54 54 55 54 54 53 52 52 51 50 50 49 49 50 51 51 52 52 52 52 52 52 52 52
47 47 47 46 46 46 46 46 46 45 45 45 45 45 45 45 44 44 45 45 44 44 45 45 45 45 45 45 46 47 47 46 45 45 45 45 46 48 48 48 47 48 49 50 50 49 50 50 51 51 51 51 51 51 51 51 51 51 52 52 52 53 53 53 53 53 52 52 51 51 50 50 50 50 51 51 52 52 52 52 52 52 52 52 52 53
44 44 44 43 43 43 43 43 43 43 42 42 42 43 43 43 42 43 43 43 43 43 43 43 43 43 44 44 45 45 46 45 45 44 44 44 45 46 47 47 47 47 48 49 49 48 49 50 50 50 50 50 50 50 50 50 50 51 51 51 52 52 52 52 52 51 51 50 50 50 50 50 51 51 52 52 52 52 52 52 52 52 52 52 52 52
42 41 41 41 41 41 41 41 41 41 41 41 41 41 41 41 41 41 41 41 41 41 41 41 41 42 43 43 43 44 45 45 44 43 43 44 45 46 46 46 46 47 48 48 48 48 48 49 49 49 49 49 49 49 49 50 50 50 51 51 51 51 51 51 51 50 50 50 50 50 50 50 51 51 52 52 52 52 52 52 52 52 52 52 51 51
40 40 40 40 40 40 40 40 40 40 40 40 40 40 40 40 40 40 40 40 40 40 40 40 41 41 42 42 42 43 44 44 44 43 43 44 44 45 46 47 46 46 47 48 47 47 47 48 48 48 48 49 49 49 49 50 50 50 50 51 51 51 51 51 51 50 50 50 50 50 51 51 51 52 52 52 52 52 52 52 52 52 51 50 49 48
39 39 39 39 40 40 40 40 39 39 39 39 39 39 39 39 39 39 39 40 39 39 39 40 41 41 41 42 42 43 44 44 44 44 44 44 45 46 47 47 47 47 47 47 47 47 47 47 48 48 48 48 49 49 49 49 50 50 50 51 51 51 51 51 51 51 51 51 51 51 51 52 52 52 52 52 52 51 51 51 51 50 49 49 48 47
39 39 39 39 40 40 40 39 39 39 39 39 39 39 39 39 39 39 39 40 39 39 40 40 41 41 41 42 42 43 44 45 45 45 45 45 46 47 47 47 47 47 47 47 47 46 46 47 47 48 48 48 48 49 49 49 50 50 50 51 51 51 51 51 52 52 52 52 52 52 52 52 52 51 51 51 51 51 50 50 49 48 48 47 47 47
39 40 40 40 40 40 40 40 40 39 39 39 39 39 39 39 39 39 40 40 40 40 40 41 41 41 42 42 42 43 44 45 46 46 46 46 46 47 47 47 47 47 47 46 46 46 46 46 47 47 47 48 48 49 49 49 50 50 51 51 51 51 51 52 52 52 52 52 52 52 51 51 51 51 50 50 50 49 49 48 48 48 48 48 48 48
40 40 40 40 40 40 40 40 40 40 40 39 39 39 39 39 40 40 40 40 40 41 41 41 41 41 42 42 42 43 44 45 46 46 45 45 46 46 46 46 46 46 46 45 45 45 45 45 46 46 47 47 48 48 49 50 50 50 51 51 51 51 51 51 51 52 52 51 51 51 51 50 50 50 49 49 48 48 48 48 48 49 49 49 50 50
41 41 41 41 41 41 41 41 41 40 40 40 40 40 40 40 40 41 41 41 41 41 41 41 42 42 42 42 42 43 44 45 45 45 45 44 45 45 45 45 45 45 45 45 44 44 44 44 44 45 46 47 48 48 49 50 50 50 50 50 51 51 51 51 51 51 51 51 51 50 50 50 49 49 48 48 48 48 48 49 49 50 50 50 50 50
41 41 41 42 41 41 41 41 41 41 41 41 41 41 41 41 41 41 41 41 41 42 42 42 42 42 42 42 42 43 44 45 45 44 44 43 44 43 43 43 44 44 44 44 43 43 43 43 43 44 45 46 47 48 48 49 49 49 50 50 50 50 51 51 51 50 50 50 50 50 49 49 48 48 48 48 48 49 49 50 51 51 51 50 50 48
42 42 42 42 42 42 42 42 42 42 41 41 41 41 41 41 41 41 42 42 42 42 42 42 42 42 42 43 43 43 44 44 44 44 43 43 43 43 42 42 43 43 43 43 43 42 42 42 42 43 44 45 45 46 47 48 48 48 49 49 50 50 50 50 50 50 49 49 49 48 48 48 48 48 48 49 49 50 51 51 51 51 50 49 48 47
42 42 42 42 42 42 42 42 42 42 42 42 42 42 42 42 42 42 42 42 42 42 42 42 42 43 43 43 43 44 44 44 44 43 43 43 43 42 42 42 42 42 42 42 42 41 41 41 41 42 42 43 44 45 46 46 47 48 49 49 49 49 49 49 49 49 48 48 47 47 47 47 48 48 49 50 51 51 51 51 51 50 49 48 47 46
41 41 42 42 42 42 42 42 42 42 42 42 42 42 42 42 42 42 42 42 42 42 42 43 43 43 43 43 44 44 44 45 44 43 43 43 42 42 42 42 42 42 41 41 40 40 40 40 40 40 40 41 42 44 45 46 47 48 48 48 48 48 48 47 47 47 46 46 46 46 46 47 48 49 50 51 51 51 51 50 50 49 48 47 46 46
41 41 41 41 42 42 42 42 42 42 42 42 42 42 42 42 42 42 42 42 42 43 43 43 44 44 44 44 44 44 45 45 44 44 43 43 42 42 42 42 41 41 41 40 39 39 38 38 38 39 40 41 42 43 45 46 46 47 47 47 46 46 46 45 45 45 44 45 45 46 47 48 49 49 50 50 50 50 49 49 48 47 47 47 47 48
40 40 41 41 41 42 42 42 42 42 42 42 42 42 42 42 42 42 42 42 42 43 43 44 44 45 45 45 45 45 45 44 44 44 43 43 42 42 42 41 41 40 40 39 38 37 37 37 38 39 40 41 42 43 44 45 45 45 45 45 44 44 44 44 43 43 44 45 45 46 47 48 49 49 49 49 49 48 47 47 46 46 47 48 49 50
39 40 40 41 41 41 41 42 42 42 42 41 41 41 41 41 42 42 42 42 43 43 44 44 45 45 45 45 45 45 44 44 44 43 43 42 42 41 41 41 40 39 38 38 37 37 37 37 38 39 40 41 42 43 43 43 43 43 42 42 42 42 42 42 43 43 44 45 46 47 48 49 49 49 48 47 47 46 45 45 46 47 48 50 51 53
38 39 39 40 40 40 41 41 41 41 41 41 41 41 41 41 41 41 42 42 43 43 44 44 45 45 45 45 44 44 43 43 43 42 42 41 41 40 40 40 39 38 37 37 37 37 37 38 39 40 40 41 41 42 41 41 41 41 40 40 40 40 41 42 43 44 45 46 47 48 48 48 48 47 46 45 45 44 45 45 47 48 50 52 53 55
36 37 38 38 39 39 39 40 40 40 40 40 40 40 40 40 41 41 41 42 42 43 43 44 44 44 44 43 43 43 42 42 41 41 40 40 39 39 38 38 38 37 37 37 37 37 38 39 39 40 40 41 40 40 40 39 39 39 39 39 39 40 41 42 44 45 46 47 48 48 48 47 46 45 44 44 44 44 45 47 48 50 52 53 55 56
34 35 36 36 37 37 37 38 38 38 38 39 39 39 39 39 40 40 41 41 42 42 42 42 42 42 42 42 42 41 41 40 40 39 39 39 38 38 37 37 37 37 37 37 38 38 39 39 40 40 40 40 39 39 38 38 38 38 38 38 39 40 41 43 44 46 47 47 47 47 46 45 44 43 43 43 44 45 47 48 50 52 53 55 56 57
33 33 34 34 34 35 35 35 36 36 36 37 37 37 38 38 38 39 39 39 40 40 40 40 40 40 41 41 40 40 39 39 39 38 38 38 38 37 37 37 37 37 38 38 39 39 39 40 40 40 39 39 38 37 37 37 37 38 38 39 39 40 42 43 45 46 47 47 46 46 45 43 42 42 42 43 45 46 48 50 52 53 55 56 57 58
31 32 32 33 33 33 33 33 34 34 34 35 35 35 36 36 36 36 37 37 38 38 38 38 39 39 39 39 38 38 38 38 37 37 38 37 37 37 38 38 38 38 38 39 39 39 39 39 39 39 38 38 37 37 36 37 37 38 39 40 40 41 42 44 45 46 46 46 45 44 43 42 42 42 43 44 46 48 50 52 53 55 56 57 59 60
30 31 31 32 32 32 32 32 32 32 32 33 33 33 33 34 34 34 35 35 36 36 36 37 37 37 36 36 36 36 36 36 37 37 37 37 38 38 38 39 39 39 39 39 39 39 39 39 38 38 37 37 37 36 36 37 37 38 39 40 42 43 43 44 45 45 45 44 43 42 42 42 42 43 44 46 48 50 52 53 55 56 57 59 60 61
28 29 30 31 31 31 31 31 31 31 31 31 32 32 32 32 32 33 33 34 34 35 35 35 35 34 34 34 34 35 35 36 36 37 37 38 38 39 39 40 40 39 39 39 39 38 38 37 37 37 37 37 36 36 37 37 38 38 40 41 43 44 44 45 45 44 43 42 41 41 42 42 43 45 46 48 49 51 53 54 56 57 58 60 61 62
27 28 29 29 30 31 31 32 32 32 32 32 32 32 32 32 32 32 33 33 33 33 33 33 33 33 33 33 33 34 34 35 36 37 38 38 39 40 40 40 40 40 39 38 38 37 37 37 36 36 36 36 36 36 37 38 38 39 41 42 43 44 44 44 44 43 42 41 41 41 42 44 45 47 48 49 51 52 54 55 57 58 60 61 63 64
27 27 28 28 29 30 31 32 33 33 33 33 33 33 33 33 33 33 33 33 33 33 33 33 32 32 32 33 33 33 34 35 36 37 38 39 40 40 41 40 40 39 38 37 37 36 36 36 36 36 36 36 36 36 37 38 39 40 42 43 43 44 44 43 42 42 41 41 41 42 44 46 47 49 50 51 52 53 55 56 58 60 61 63 64 65
28 28 28 28 28 29 30 31 32 33 34 34 34 34 34 34 34 34 34 33 33 33 33 33 32 32 33 33 33 34 35 36 37 38 39 39 40 40 40 39 38 37 36 36 35 35 34 35 35 35 36 36 36 36 37 38 40 41 42 43 43 43 42 42 41 41 41 41 42 44 46 48 49 51 52 52 53 54 56 57 59 61 63 64 65 65
29 28 28 28 28 29 29 30 31 32 33 34 35 35 35 35 35 35 35 34 34 34 33 33 33 33 33 33 34 34 35 36 37 38 39 39 39 39 38 37 36 35 34 34 33 33 33 34 34 35 36 36 36 37 38 39 41 42 43 43 43 42 41 40 40 40 41 42 44 46 48 50 51 53 54 55 55 56 57 59 61 62 63 64 64 63
30 30 29 29 29 29 29 29 30 31 32 33 34 35 35 36 36 36 36 35 35 34 34 33 33 33 33 33 34 34 35 36 37 38 38 38 37 36 35 34 34 33 33 32 32 32 32 33 34 35 36 37 37 38 39 40 41 42 43 43 42 41 40 40 40 41 42 44 46 48 50 51 53 54 56 57 58 59 60 60 61 62 63 63 62 60
32 31 31 31 30 30 30 30 30 30 30 31 32 34 35 35 36 36 36 36 35 35 34 34 33 33 33 34 34 35 35 36 37 37 36 36 35 34 33 32 32 32 32 31 31 31 31 32 33 34 36 37 38 39 40 41 42 42 42 41 41 40 40 40 40 42 44 46 47 49 51 53 54 56 57 59 60 61 61 61 61 60 60 59 58 56
Wind_Direction
248 248 248 249 250 252 253 253 254 254 255 256 258 259 261 262 263 263 263 263 263 262 262 262 261 261 261 261 261 262 262 262 263 264 264 265 266 267 269 270 270 271 272 273 273 274 275 275 276 277 277 278 279 280 281 282 283 284 284 285 285 285 286 286 286 287 287 287 287 288 288 289 289 290 290 290 291 291 291 291 292 292 292 293 293 293
250 252 253 253 255 256 257 258 259 260 261 262 263 265 267 268 268 268 267 267 267 266 265 265 265 264 264 264 264 264 265 265 265 266 267 268 270 271 272 273 274 275 275 276 276 277 278 278 279 279 280 281 281 282 282 283 284 284 285 285 286 286 286 287 287 287 288 288 288 289 289 290 290 291 291 292 292 292 292 293 293 293 293 293 293 293
254 255 257 258 259 260 261 261 262 263 264 265 266 268 269 270 271 270 269 269 269 268 267 267 267 266 266 266 267 267 267 268 268 270 271 272 273 274 275 276 277 277 278 278 279 279 280 280 281 281 281 282 282 283 283 283 284 284 285 285 285 286 286 286 287 287 288 288 289 289 290 290 291 291 292 292 292 292 293 293 293 293 293 293 292 292
258 259 260 261 262 262 263 264 264 265 266 266 268 269 270 270 270 270 270 270 270 270 269 269 269 269 269 269 270 270 271 271 272 273 274 276 277 277 278 279 279 280 280 280 280 281 281 281 281 282 282 282 282 283 283 283 284 284 284 285 285 285 285 286 286 287 287 288 288 289 290 290 291 291 291 292 292 292 292 292 292 292 291 291 291 291
261 262 262 263 264 265 265 266 266 267 267 268 269 269 270 270 270 270 270 271 271 271 271 271 272 272 272 273 273 274 275 275 276 277 278 278 279 279 280 280 281 281 281 281 281 281 281 282 282 282 282 282 282 282 283 283 283 283 283 284 284 284 285 285 286 286 287 288 288 289 289 290 290 291 291 291 291 291 291 291 291 290 290 290 290 290
264 264 264 265 266 267 267 268 269 269 269 270 270 270 270 270 270 271 271 271 272 272 273 273 274 274 275 276 276 277 278 278 279 279 280 280 280 281 281 281 281 281 281 282 281 282 282 282 282 282 282 282 282 282 282 282 282 283 283 283 284 284 285 285 286 286 287 288 288 289 289 290 290 290 290 290 290 290 290 290 290 290 290 290 290 290
266 266 267 267 268 268 269 270 270 271 271 271 271 271 272 272 272 272 272 272 273 273 273 274 274 275 276 277 278 278 279 280 280 280 280 281 281 281 281 281 281 281 281 281 281 281 281 281 281 281 281 281 281 281 281 282 282 282 283 283 284 284 285 286 286 287 288 288 288 289 289 289 289 289 289 289 289 289 289 289 289 289 289 289 289 289
268 268 269 269 269 270 270 271 271 272 272 272 272 272 273 273 273 273 273 274 274 274 274 274 274 275 276 277 277 278 279 279 279 280 280 280 280 280 280 280 280 280 280 280 280 280 280 280 280 280 280 280 281 281 281 281 282 282 283 283 284 285 285 286 287 287 288 288 288 288 288 288 288 288 288 288 288 289 289 289 289 289 289 289 289 288
270 270 270 270 270 271 271 271 272 272 273 273 273 273 273 273 274 274 274 274 274 274 274 274 274 275 275 276 276 277 277 278 278 278 279 279 279 279 279 279 279 279 279 279 279 279 279 279 280 280 280 280 280 281 281 281 282 283 283 284 284 285 286 286 287 287 287 287 287 287 287 287 288 288 288 288 288 289 289 289 289 289 288 288 288 287
270 271 271 271 271 271 272 272 272 273 273 274 274 274 274 274 274 274 274 274 274 274 274 274 274 274 275 275 275 275 276 276 277 277 277 277 278 278 278 278 278 278 278 278 278 279 279 279 279 279 280 280 280 281 281 282 282 283 284 284 285 285 286 286 286 286 286 287 287 287 287 287 287 288 288 288 288 288 288 288 288 288 288 288 288 288
270 270 271 271 272 272 272 272 273 273 274 274 274 274 274 274 273 273 273 274 274 274 274 274 274 274 274 274 274 274 275 275 276 276 276 276 277 277 277 277 277 278 278 278 278 278 279 279 279 279 280 280 281 281 282 282 283 283 284 285 285 285 286 286 286 286 286 286 286 287 287 287 288 288 288 288 288 288 288 288 288 288 289 289 289 289
270 270 270 271 271 272 272 272 273 273 274 274 274 274 274 274 273 273 273 273 274 274 274 274 274 274 274 274 274 274 274 275 275 275 276 276 276 276 276 277 277 277 278 278 278 278 279 279 279 280 280 281 281 282 282 283 283 284 284 284 285 285 285 285 285 286 286 286 287 287 288 288 288 289 289 289 289 289 290 290 290 290 290 291 291 290
269 270 270 271 271 271 272 272 272 273 273 273 273 273 273 273 273 273 273 274 274 274 274 274 274 274 274 274 274 275 275 275 275 275 275 276 276 276 276 277 277 277 278 278 278 279 279 280 280 280 281 281 282 282 282 283 283 283 284 284 284 284 284 285 285 286 286 287 288 288 289 289 289 289 290 290 291 291 292 292 292 292 293 292 292 291
269 270 270 270 271 271 272 272 272 272 273 273 272 273 273 274 274 274 274 274 274 274 274 274 275 275 275 275 275 275 275 276 276 276 276 276 276 276 277 277 277 278 278 279 279 279 280 280 281 281 281 282 282 282 282 283 283 283 283 283 283 284 284 285 286 287 287 288 289 289 289 289 290 291 291 292 293 293 293 294 294 294 293 293 292 291
270 270 270 271 271 272 272 273 273 273 273 273 273 273 274 274 275 274 274 274 275 275 275 275 275 275 275 275 275 275 275 276 276 276 276 276 276 277 277 277 278 278 278 279 279 279 280 280 281 281 281 281 282 282 282 282 282 282 283 283 284 284 285 286 287 288 289 289 289 290 290 291 291 292 293 294 294 294 294 294 294 294 293 293 292 291
270 270 271 271 272 272 273 273 273 273 274 274 274 274 275 275 275 275 275 275 275 275 275 275 275 275 275 275 275 275 275 275 276 276 276 277 276 277 277 277 277 278 278 278 279 279 279 280 280 280 280 281 281 281 281 282 282 283 283 284 285 286 287 288 289 289 290 290 290 291 292 292 293 293 294 294 294 294 294 294 294 294 294 293 293 292
270 271 271 271 272 272 273 273 273 274 274 275 275 275 275 276 276 276 276 276 276 276 276 275 275 275 275 276 276 275 275 275 276 276 276 276 276 276 277 277 277 277 278 278 278 279 279 279 280 280 280 280 280 281 281 282 283 283 284 285 286 287 289 290 290 291 291 291 292 292 293 293 293 293 293 293 294 294 294 294 294 294 294 294 293 292
270 271 271 271 272 272 273 273 273 274 274 275 275 276 276 276 277 277 277 277 277 277 277 276 276 276 276 276 276 276 276 275 276 276 277 277 277 277 277 277 278 278 278 278 278 279 279 280 280 280 280 281 281 281 282 283 284 285 285 287 288 289 290 291 291 291 291 292 292 293 293 293 293 293 293 293 293 293 294 294 294 294 294 293 293 292
270 271 271 271 272 272 272 273 273 274 274 274 275 276 276 277 277 277 277 277 277 277 277 277 277 277 276 276 277 277 276 276 276 277 277 278 278 278 278 279 279 279 279 279 280 280 280 281 281 281 281 281 282 283 283 284 285 286 287 288 289 290 291 291 291 292 292 292 293 293 293 293 293 292 292 292 292 292 293 293 293 293 293 292 292 292
271 271 271 272 272 272 273 273 273 274 274 275 275 276 276 276 277 277 277 277 277 277 277 277 277 277 277 277 277 277 277 277 278 278 278 279 279 280 280 280 281 281 281 281 281 281 282 282 282 282 283 283 283 284 284 285 286 287 288 289 290 290 291 291 292 292 293 293 293 293 293 292 292 291 291 291 291 292 292 292 292 292 292 292 291 291
271 271 272 272 272 272 273 273 274 274 274 275 275 276 276 276 276 277 277 277 277 277 277 278 277 277 278 278 278 279 279 279 280 280 280 280 281 281 281 282 282 282 283 282 283 283 283 284 283 283 284 284 284 285 285 285 286 287 288 289 290 291 291 292 293 293 293 293 293 293 292 292 291 291 290 290 291 291 291 291 292 292 292 291 291 291
271 271 272 272 272 273 273 273 274 274 275 275 275 276 276 276 276 276 277 277 277 277 278 278 278 278 279 279 280 280 281 281 281 281 281 282 282 282 282 283 283 284 283 283 284 284 284 284 284 284 284 284 284 284 285 285 286 287 288 289 290 291 292 293 294 294 294 294 293 293 292 292 291 290 290 290 290 290 291 291 291 291 291 291 291 291
271 271 272 272 273 273 273 273 274 275 275 275 275 275 275 276 276 276 276 277 277 277 278 278 279 280 280 281 281 281 282 283 283 283 283 283 283 283 283 284 284 284 284 284 284 285 285 284 284 283 283 283 283 284 284 285 286 287 288 289 290 292 293 294 294 294 294 294 293 293 292 291 291 290 290 289 289 290 290 290 291 291 291 291 291 291
271 271 272 273 273 273 274 274 274 275 275 275 275 275 276 276 276 277 277 277 278 278 279 279 280 281 281 282 282 283 283 284 284 284 284 284 284 283 284 285 285 285 285 285 285 285 285 284 284 283 283 283 283 283 284 285 286 287 288 289 290 291 293 294 294 294 294 294 293 293 292 291 290 290 289 289 289 290 290 290 291 291 291 291 291 291
272 272 272 273 273 274 274 274 275 275 275 276 276 276 277 277 277 277 278 278 279 279 280 280 281 282 282 283 283 284 284 284 285 285 285 285 285 285 285 285 286 286 286 286 286 285 285 284 283 283 283 282 283 283 284 285 286 287 288 289 290 291 292 293 294 294 294 294 293 292 292 291 290 289 289 289 289 290 290 291 291 291 291 291 290 290
272 273 273 274 274 275 275 275 275 276 276 276 277 277 277 278 278 278 279 279 280 280 281 282 282 282 283 284 284 284 284 285 285 286 286 286 286 286 286 286 286 286 286 286 286 285 285 284 283 283 282 282 283 283 284 285 286 287 287 289 290 291 292 292 293 293 293 293 292 292 291 290 290 289 289 290 290 291 291 291 291 290 290 290 290 290
273 274 274 275 275 275 276 276 276 277 277 277 278 278 278 279 279 279 280 280 280 281 282 282 282 283 283 284 284 284 285 285 286 286 286 286 286 286 286 286 287 286 286 286 285 285 284 283 283 282 282 282 283 284 284 285 286 287 288 288 289 290 291 291 292 292 292 292 292 291 291 290 290 290 290 291 291 291 291 291 290 290 290 290 290 289
274 274 275 275 276 276 276 277 277 277 278 278 278 278 279 279 280 280 280 280 281 282 282 282 283 283 284 284 284 285 285 286 286 286 287 287 287 286 286 287 286 286 286 285 285 285 284 283 282 282 282 282 283 284 284 285 286 287 288 288 289 290 290 291 291 291 292 292 291 291 291 290 291 291 291 291 291 291 291 290 290 290 290 290 290 290
275 275 275 276 276 276 276 277 277 277 278 278 278 279 279 279 280 280 280 281 281 282 282 282 283 283 284 284 284 285 285 285 286 286 287 287 287 287 287 287 286 286 285 285 284 284 283 282 282 282 282 282 283 284 284 285 286 287 288 288 289 289 290 290 291 291 291 291 291 291 291 291 291 292 291 291 291 291 291 291 290 290 290 290 290 290
275 275 276 276 276 276 276 276 277 277 277 278 278 278 279 279 279 279 280 281 281 281 282 282 282 283 283 283 284 284 285 285 285 286 287 287 287 287 287 287 286 286 285 285 284 283 282 282 282 282 282 282 283 284 284 285 286 287 287 288 289 289 289 290 290 291 291 291 291 291 291 292 292 292 292 291 291 291 291 291 291 291 291 291 291 290
274 275 275 275 275 276 276 276 277 277 277 278 278 278 278 279 279 279 280 280 281 281 281 281 281 282 282 282 283 283 284 284 285 286 286 287 287 287 287 287 286 286 285 285 284 282 281 281 281 282 282 283 283 284 285 285 286 287 287 288 288 289 289 290 290 291 291 291 291 291 292 292 292 292 292 291 291 291 291 291 292 292 292 291 291 291
274 274 274 275 275 275 275 276 276 277 277 277 278 278 278 278 278 279 279 280 280 280 280 281 281 281 281 282 282 283 283 284 285 285 286 286 286 286 287 286 286 286 285 285 283 282 281 281 281 281 282 283 284 284 285 285 286 287 287 288 288 289 290 290 290 291 291 291 292 292 292 292 292 292 292 292 292 292 293 293 293 293 292 292 292 291
274 274 274 274 274 275 275 275 276 276 277 277 277 277 278 278 278 278 278 279 279 279 280 280 280 281 281 282 282 283 283 284 285 285 286 286 286 286 286 286 286 286 285 285 284 283 282 281 281 282 282 283 284 284 285 286 286 287 288 288 289 289 290 290 290 291 291 292 292 293 293 293 293 293 293 293 294 294 294 294 294 294 293 293 293 292
274 274 274 274 274 275 275 275 276 276 276 277 277 277 278 278 278 278 278 278 279 279 279 280 280 281 281 282 282 283 284 284 285 285 286 286 286 286 286 286 286 286 286 286 285 284 284 283 283 283 283 284 284 285 286 286 287 288 288 289 289 289 290 290 290 291 292 292 292 293 293 293 294 294 294 295 295 295 295 295 295 295 294 294 293 293
274 274 274 274 274 274 275 275 275 276 276 277 277 277 278 278 278 278 278 278 279 279 279 279 280 281 282 282 283 283 284 285 285 286 286 286 286 287 287 287 287 287 287 287 286 286 285 285 284 284 284 284 285 286 287 287 288 288 289 289 289 289 290 290 290 291 291 292 292 293 293 294 294 295 295 295 296 296 296 295 295 295 294 294 293 293
275 274 274 274 274 274 274 274 275 275 275 276 276 277 277 278 278 278 278 278 279 279 279 280 280 281 282 283 283 284 284 285 285 286 286 286 286 287 287 287 287 287 287 287 287 287 286 286 285 285 286 286 287 287 288 288 288 288 288 288 289 289 289 290 290 291 291 292 292 293 294 294 295 295 295 296 296 295 295 295 295 294 294 294 294 294
275 275 275 274 274 274 274 274 274 274 275 275 276 276 276 277 277 277 278 278 279 279 280 280 281 282 282 283 283 284 284 284 285 285 285 286 286 286 287 287 287 287 287 287 287 286 286 286 286 287 287 288 288 288 288 288 288 288 288 288 289 289 290 290 291 291 292 292 293 294 294 295 295 295 295 295 295 295 294 294 294 294 294 294 295 295
277 276 276 275 275 274 274 274 274 274 274 274 275 275 275 276 276 277 277 278 278 279 280 281 282 282 283 283 283 283 284 284 284 285 285 285 286 286 286 287 287 287 287 287 286 286 286 287 287 288 289 289 289 289 288 288 288 288 288 288 289 289 290 291 292 292 293 293 294 294 295 295 295 295 295 295 294 294 294 294 294 294 295 295 295 296
278 278 277 276 276 275 275 274 274 274 274 274 274 274 274 275 275 276 277 278 279 280 281 281 282 283 283 283 283 283 283 284 284 284 284 285 285 286 286 286 286 286 286 286 286 286 287 288 288 289 290 290 289 289 289 288 288 288 288 289 289 290 291 292 292 293 293 294 294 295 295 295 295 295 295 294 294 294 294 294 295 295 295 296 296 297
280 279 278 277 277 276 275 275 274 274 274 273 273 274 274 275 275 276 277 278 279 280 281 282 283 283 284 284 284 283 283 283 283 283 284 284 285 285 285 285 286 286 286 286 286 286 287 288 289 290 290 290 290 289 289 288 288 288 288 289 290 291 292 292 293 293 294 295 295 295 295 295 295 295 294 294 294 294 295 295 295 296 296 297 297 297
282 281 280 279 278 277 276 275 275 274 274 274 274 274 274 275 276 277 278 279 280 281 282 283 284 284 284 284 284 283 283 283 283 283 283 284 284 284 285 285 285 285 285 286 286 287 288 289 290 290 290 291 290 289 289 288 288 289 289 290 291 292 292 293 294 294 295 295 295 295 295 295 295 295 295 295 295 295 296 296 297 297 297 298 298 298
285 283 282 281 280 278 277 276 275 275 274 274 274 275 275 276 277 278 279 280 281 282 283 284 285 285 284 284 283 283 283 283 283 283 283 283 284 284 284 285 285 286 286 286 287 287 288 289 290 290 290 290 290 289 289 289 289 289 290 291 292 292 293 293 294 295 295 295 295 295 295 295 295 295 295 295 296 296 297 297 298 298 298 298 298 298
288 286 285 283 282 280 279 277 277 276 275 275 275 275 276 276 277 279 280 281 282 284 284 285 285 285 284 284 283 283 283 282 282 282 283 283 284 284 285 286 286 286 287 287 287 287 288 289 289 290 290 290 290 289 289 289 290 290 291 292 293 293 294 294 295 295 295 295 295 295 295 295 295 295 296 296 297 298 298 299 299 299 299 299 299 299
292 290 288 286 284 283 281 279 278 277 276 276 275 275 276 277 278 279 280 282 283 284 285 285 285 285 285 284 284 284 283 283 282 283 283 284 285 286 286 287 287 287 287 287 287 287 288 288 289 290 290 290 290 290 290 290 291 292 293 293 294 295 295 295 296 295 295 295 295 295 295 295 295 296 297 298 298 299 300 300 300 300 300 300 300 300
298 295 292 290 287 285 283 281 279 277 276 275 275 275 276 276 277 279 280 282 283 284 285 285 286 286 285 285 284 284 284 284 284 284 284 285 286 287 288 288 288 287 287 287 287 287 288 288 289 290 290 290 291 291 291 292 292 293 294 295 295 296 296 297 296 296 295 295 295 295 295 296 296 297 298 299 300 301 301 301 301 301 301 301 301 300
305 302 298 294 290 287 284 281 279 278 277 276 276 275 276 276 277 278 280 281 283 284 285 286 286 286 286 286 285 285 285 285 285 286 287 287 288 289 289 289 288 287 287 286 286 287 288 289 290 290 291 291 292 292 293 294 294 295 295 296 297 297 297 297 297 296 296 295 295 296 296 297 298 299 300 301 302 302 303 303 303 303 302 302 302 301
311 308 305 300 296 291 287 284 281 279 278 277 276 276 276 277 277 278 280 281 283 284 285 286 286 287 286 286 286 286 286 287 287 288 289 290 290 290 289 289 288 287 286 286 286 287 288 289 290 291 292 292 293 293 294 295 296 296 297 297 297 298 298 298 297 297 296 297 297 298 298 299 300 301 302 303 303 304 304 304 304 304 303 303 302 302
312 312 310 308 304 299 294 290 286 283 280 279 278 277 277 277 278 278 280 281 282 284 285 286 286 286 286 286 286 286 287 288 289 290 291 291 291 290 290 289 288 287 286 286 287 288 289 290 291 292 293 293 294 295 296 296 297 297 298 298 298 298 298 298 297 297 298 298 299 300 301 301 302 303 304 304 305 305 305 305 305 304 304 303 303 302
310 311 311 311 309 307 303 298 293 289 285 282 280 278 278 277 277 278 279 280 282 283 284 285 286 286 286 286 286 287 288 289 290 291 292 292 291 290 289 288 287 286 286 286 287 288 290 291 293 294 294 295 296 296 297 297 298 298 299 299 299 299 298 298 298 298 299 300 301 302 303 304 304 305 305 306 306 306 306 306 306 305 304 303 303 303
305 307 308 309 310 309 308 305 301 296 291 287 284 281 279 278 277 278 278 279 281 282 283 284 284 285 285 286 287 288 289 290 291 292 292 292 291 290 289 288 287 287 287 287 288 290 291 293 294 295 296 296 297 298 298 298 299 299 299 299 299 299 299 299 299 300 301 302 303 304 305 305 306 307 307 307 307 307 307 307 306 306 305 304 304 303
301 302 304 305 306 308 308 307 305 302 298 294 289 285 282 280 278 277 277 278 279 281 282 283 283 284 285 285 287 288 289 290 291 292 292 291 291 290 289 288 287 287 287 288 289 291 293 295 296 297 297 298 299 299 299 299 299 300 300 300 300 299 299 300 300 301 303 304 305 306 307 307 308 308 308 308 308 308 308 308 307 307 306 305 304 304
Height
5674 5674 5674 5674 5675 5674 5673 5674 5674 5675 5674 5674 5674 5674 5675 5675 5674 5674 5674 5674 5674 5673 5673 5672 5672 5672 5671 5671 5670 5670 5670 5670 5670 5669 5669 5669 5668 5668 5667 5667 5666 5666 5665 5665 5665 5664 5663 5662 5662 5661 5660 5659 5658 5656 5655 5654 5653 5652 5651 5650 5649 5648 5647 5645 5644 5643 5642 5641 5640 5638 5637 5636 5635 5634 5633 5631 5630 5629 5628 5627 5625 5624 5623 5622 5620 5619
5669 5668 5668 5669 5669 5669 5668 5668 5668 5669 5669 5668 5668 5668 5669 5669 5668 5668 5668 5668 5668 5668 5667 5667 5667 5666 5666 5665 5665 5665 5665 5665 5664 5664 5664 5663 5663 5663 5662 5662 5661 5661 5660 5660 5659 5659 5658 5657 5656 5655 5655 5653 5652 5651 5650 5649 5648 5646 5645 5644 5643 5642 5640 5639 5638 5637 5635 5634 5633 5632 5631 5630 5628 5627 5626 5625 5623 5622 5620 5619 5618 5617 5615 5615 5613 5612
5664 5663 5663 5663 5663 5663 5663 5662 5662 5663 5663 5663 5662 5663 5663 5663 5663 5663 5663 5663 5663 5662 5662 5661 5661 5661 5660 5660 5660 5660 5659 5659 5659 5658 5658 5658 5658 5657 5657 5656 5656 5656 5655 5655 5654 5653 5653 5652 5651 5650 5649 5648 5647 5645 5645 5643 5642 5641 5640 5638 5637 5636 5635 5633 5632 5631 5630 5628 5627 5626 5624 5623 5622 5620 5619 5618 5616 5615 5614 5612 5611 5610 5609 5608 5607 5607
5658 5658 5657 5657 5657 5658 5658 5657 5657 5657 5658 5658 5657 5657 5658 5658 5658 5657 5657 5657 5657 5657 5657 5656 5656 5656 5655 5655 5655 5655 5654 5654 5654 5653 5653 5652 5652 5652 5651 5651 5651 5650 5650 5649 5648 5648 5647 5646 5645 5644 5643 5642 5641 5640 5639 5637 5636 5635 5634 5633 5632 5630 5629 5628 5626 5625 5624 5622 5621 5620 5618 5617 5615 5614 5612 5611 5610 5609 5607 5606 5605 5605 5604 5603 5602 5601
5652 5652 5651 5651 5652 5652 5652 5652 5652 5652 5652 5652 5652 5652 5652 5653 5653 5652 5652 5652 5652 5652 5651 5651 5651 5651 5650 5650 5649 5649 5649 5649 5648 5648 5647 5647 5647 5646 5646 5646 5645 5645 5644 5643 5643 5642 5641 5640 5639 5638 5637 5636 5635 5634 5633 5632 5631 5630 5629 5627 5626 5625 5624 5622 5621 5619 5618 5616 5615 5614 5612 5611 5609 5608 5606 5605 5604 5603 5602 5601 5600 5599 5598 5597 5596 5595
5646 5646 5646 5646 5646 5646 5646 5646 5646 5646 5646 5646 5646 5647 5647 5647 5647 5647 5647 5647 5647 5647 5646 5646 5646 5646 5645 5645 5644 5644 5644 5643 5643 5642 5642 5641 5641 5641 5641 5640 5640 5639 5638 5638 5637 5636 5635 5634 5633 5632 5631 5630 5629 5628 5627 5626 5625 5624 5623 5622 5620 5619 5618 5616 5615 5614 5612 5611 5609 5608 5606 5605 5604 5602 5601 5600 5599 5598 5597 5595 5595 5593 5592 5591 5590 5589
5640 5641 5641 5642 5641 5641 5641 5641 5641 5641 5641 5641 5641 5641 5642 5642 5642 5642 5642 5642 5641 5641 5641 5641 5641 5640 5640 5640 5639 5639 5638 5638 5637 5637 5636 5636 5636 5635 5635 5635 5634 5633 5632 5632 5631 5630 5629 5628 5627 5626 5625 5625 5624 5623 5621 5620 5619 5618 5617 5616 5615 5613 5612 5610 5609 5608 5606 5605 5604 5602 5601 5600 5598 5597 5596 5595 5594 5592 5591 5590 5589 5587 5586 5585 5584 5582
5635 5636 5636 5637 5637 5636 5636 5636 5636 5636 5637 5637 5637 5637 5637 5637 5637 5637 5636 5636 5636 5636 5636 5636 5636 5635 5635 5635 5634 5634 5633 5632 5632 5631 5631 5631 5630 5630 5630 5629 5628 5628 5627 5626 5625 5625 5624 5623 5622 5620 5620 5619 5618 5617 5616 5615 5614 5612 5611 5610 5609 5607 5606 5605 5604 5602 5601 5600 5599 5597 5596 5595 5593 5592 5590 5589 5588 5586 5585 5584 5583 5581 5580 5579 5577 5576
5630 5630 5631 5631 5632 5632 5632 5631 5631 5631 5632 5633 5633 5632 5632 5632 5632 5632 5631 5631 5630 5631 5631 5631 5631 5630 5630 5629 5629 5629 5628 5627 5627 5626 5626 5625 5625 5625 5624 5624 5623 5622 5621 5621 5620 5619 5618 5617 5616 5615 5614 5613 5612 5611 5610 5609 5608 5607 5605 5604 5603 5602 5601 5600 5598 5597 5596 5595 5593 5592 5591 5589 5588 5586 5585 5584 5582 5581 5580 5578 5577 5575 5574 5573 5571 5570
5625 5625 5625 5626 5626 5627 5627 5626 5626 5626 5627 5628 5628 5627 5627 5627 5627 5627 5626 5626 5625 5625 5626 5626 5626 5625 5624 5624 5624 5624 5623 5623 5622 5621 5621 5620 5620 5620 5619 5618 5618 5617 5616 5615 5614 5613 5612 5611 5610 5609 5608 5607 5606 5605 5604 5603 5602 5601 5600 5599 5597 5596 5595 5594 5593 5592 5590 5589 5588 5587 5585 5584 5582 5581 5580 5578 5577 5575 5574 5573 5571 5570 5568 5566 5565 5564
5620 5621 5621 5621 5621 5621 5622 5622 5621 5621 5622 5623 5623 5622 5622 5622 5622 5621 5621 5620 5620 5620 5621 5621 5621 5620 5619 5618 5618 5618 5618 5618 5617 5616 5615 5615 5615 5614 5614 5613 5612 5612 5611 5610 5609 5608 5606 5605 5605 5604 5603 5602 5601 5600 5599 5597 5596 5595 5594 5593 5592 5591 5590 5589 5588 5586 5585 5584 5583 5581 5580 5578 5577 5575 5574 5573 5571 5570 5569 5567 5565 5564 5562 5561 5559 5558
5616 5616 5616 5616 5616 5616 5617 5617 5616 5616 5617 5618 5618 5617 5616 5616 5616 5617 5617 5616 5615 5615 5616 5616 5615 5615 5614 5613 5613 5613 5613 5613 5612 5611 5610 5610 5609 5609 5608 5607 5607 5606 5605 5604 5603 5602 5601 5600 5599 5598 5597 5596 5595 5594 5593 5592 5591 5590 5589 5588 5587 5585 5585 5583 5582 5581 5580 5579 5577 5576 5575 5573 5572 5570 5569 5568 5566 5565 5563 5561 5560 5558 5556 5555 5554 5553
5611 5611 5612 5612 5612 5612 5612 5612 5612 5612 5612 5613 5613 5612 5611 5610 5611 5612 5613 5611 5610 5610 5611 5611 5611 5610 5608 5608 5608 5608 5607 5607 5607 5606 5605 5605 5604 5603 5602 5602 5601 5600 5599 5599 5597 5596 5595 5594 5594 5593 5592 5590 5590 5589 5587 5586 5585 5584 5583 5582 5581 5580 5580 5578 5577 5576 5575 5574 5573 5571 5570 5568 5567 5565 5564 5562 5561 5559 5557 5555 5554 5553 5551 5550 5549 5548
5606 5607 5607 5607 5607 5607 5607 5607 5607 5607 5607 5607 5607 5607 5607 5606 5606 5607 5607 5606 5605 5605 5606 5607 5606 5605 5603 5603 5603 5603 5602 5601 5601 5600 5600 5599 5598 5597 5597 5597 5596 5595 5594 5593 5592 5590 5589 5589 5588 5588 5586 5585 5584 5583 5582 5580 5580 5579 5578 5577 5576 5575 5575 5574 5573 5572 5570 5569 5568 5566 5565 5563 5562 5560 5559 5557 5555 5554 5552 5550 5549 5548 5546 5545 5545 5543
5601 5602 5603 5603 5603 5603 5603 5603 5603 5602 5602 5601 5602 5602 5602 5602 5601 5601 5601 5601 5600 5600 5601 5601 5601 5600 5598 5598 5598 5598 5597 5596 5596 5595 5594 5593 5592 5591 5591 5592 5591 5590 5588 5588 5587 5585 5584 5583 5583 5583 5581 5580 5578 5577 5576 5575 5575 5574 5573 5572 5571 5570 5570 5569 5568 5567 5565 5564 5563 5561 5560 5558 5556 5555 5553 5552 5550 5549 5547 5546 5545 5543 5542 5541 5540 5539
5597 5597 5598 5598 5598 5598 5598 5598 5598 5598 5597 5596 5597 5597 5598 5597 5596 5596 5596 5596 5595 5595 5595 5595 5595 5594 5593 5592 5592 5592 5592 5592 5591 5590 5589 5588 5586 5585 5585 5586 5586 5585 5583 5582 5582 5581 5579 5578 5578 5577 5576 5575 5573 5572 5571 5570 5570 5569 5568 5567 5567 5566 5565 5564 5563 5562 5560 5559 5557 5556 5555 5553 5551 5550 5549 5547 5545 5544 5543 5541 5540 5539 5538 5536 5535 5534
5593 5593 5594 5594 5594 5594 5594 5594 5594 5593 5593 5592 5592 5592 5593 5592 5591 5591 5591 5591 5590 5590 5590 5590 5590 5589 5588 5586 5586 5586 5587 5587 5586 5585 5584 5583 5581 5580 5579 5581 5582 5580 5578 5577 5576 5575 5575 5574 5573 5572 5571 5570 5569 5567 5567 5566 5565 5564 5564 5563 5562 5561 5560 5559 5557 5556 5555 5554 5552 5551 5550 5548 5547 5545 5544 5543 5541 5540 5539 5537 5536 5535 5533 5532 5531 5530
5588 5589 5589 5590 5590 5590 5589 5589 5589 5589 5588 5588 5587 5587 5587 5587 5587 5586 5586 5585 5585 5585 5584 5584 5584 5584 5583 5582 5580 5580 5580 5582 5582 5581 5579 5578 5576 5575 5573 5575 5576 5575 5574 5572 5571 5570 5570 5569 5568 5567 5566 5565 5564 5563 5562 5561 5560 5560 5559 5558 5557 5555 5555 5553 5552 5551 5550 5549 5547 5546 5545 5544 5542 5541 5540 5538 5537 5536 5535 5533 5532 5530 5529 5528 5527 5526
5584 5584 5585 5585 5585 5585 5584 5584 5584 5584 5584 5583 5583 5583 5583 5583 5582 5582 5581 5581 5580 5580 5579 5579 5578 5578 5577 5577 5575 5574 5574 5576 5577 5577 5575 5574 5572 5570 5568 5569 5570 5570 5569 5567 5566 5565 5565 5565 5564 5562 5561 5560 5559 5558 5557 5556 5555 5555 5554 5553 5552 5550 5550 5548 5547 5546 5545 5544 5543 5541 5540 5539 5538 5536 5535 5534 5533 5532 5530 5529 5528 5527 5525 5525 5523 5522
5579 5579 5580 5580 5580 5580 5580 5580 5580 5579 5579 5579 5579 5579 5578 5578 5577 5577 5577 5576 5575 5575 5575 5574 5574 5573 5572 5572 5571 5570 5569 5570 5572 5572 5571 5570 5568 5566 5564 5565 5565 5566 5564 5562 5561 5561 5561 5560 5559 5557 5556 5555 5554 5553 5552 5551 5550 5550 5549 5548 5547 5546 5545 5544 5542 5541 5540 5539 5538 5537 5536 5535 5534 5532 5531 5530 5529 5528 5526 5525 5524 5523 5522 5520 5520 5518
5575 5575 5575 5575 5576 5576 5576 5575 5575 5575 5575 5575 5575 5574 5574 5573 5573 5572 5572 5572 5571 5571 5570 5570 5569 5568 5568 5567 5567 5565 5564 5565 5567 5568 5566 5565 5564 5562 5560 5560 5561 5561 5560 5558 5556 5556 5557 5556 5554 5552 5551 5550 5550 5548 5547 5546 5546 5545 5544 5543 5542 5541 5540 5539 5538 5537 5535 5534 5533 5532 5531 5530 5529 5528 5527 5526 5525 5523 5522 5521 5520 5519 5518 5516 5515 5514
5571 5571 5570 5570 5571 5572 5572 5571 5570 5570 5570 5570 5570 5570 5569 5569 5569 5569 5568 5567 5567 5567 5566 5566 5565 5564 5564 5564 5562 5561 5560 5561 5562 5563 5562 5562 5560 5558 5556 5556 5557 5557 5556 5554 5552 5552 5552 5551 5549 5548 5546 5546 5545 5544 5543 5542 5541 5540 5539 5538 5537 5536 5535 5534 5533 5532 5531 5530 5529 5528 5527 5526 5525 5524 5523 5521 5520 5519 5518 5517 5515 5515 5513 5512 5511 5510
5567 5567 5566 5566 5567 5567 5567 5567 5566 5566 5566 5566 5566 5566 5565 5565 5565 5565 5564 5563 5563 5563 5563 5562 5561 5560 5560 5559 5558 5557 5556 5556 5557 5558 5558 5558 5556 5554 5552 5552 5553 5553 5551 5550 5549 5549 5548 5546 5545 5543 5542 5542 5541 5540 5539 5538 5537 5536 5535 5534 5533 5532 5531 5530 5529 5527 5526 5525 5524 5523 5522 5521 5520 5519 5518 5517 5516 5515 5514 5513 5511 5510 5509 5508 5507 5506
5563 5563 5563 5563 5563 5563 5563 5563 5563 5563 5562 5562 5562 5561 5561 5561 5561 5560 5560 5559 5559 5559 5559 5558 5557 5556 5556 5555 5554 5553 5552 5552 5552 5553 5554 5554 5552 5550 5549 5549 5549 5549 5547 5546 5545 5545 5544 5542 5540 5539 5538 5538 5536 5535 5535 5534 5533 5532 5530 5530 5529 5528 5527 5525 5525 5523 5522 5521 5520 5519 5518 5517 5516 5515 5514 5513 5511 5510 5510 5508 5507 5506 5505 5504 5503 5502
5559 5559 5559 5559 5559 5559 5559 5559 5559 5559 5559 5558 5558 5558 5557 5557 5557 5556 5556 5555 5555 5555 5555 5554 5554 5553 5552 5551 5551 5550 5548 5548 5548 5549 5550 5549 5548 5547 5545 5545 5545 5545 5543 5542 5541 5541 5540 5538 5536 5535 5534 5533 5532 5531 5530 5529 5528 5527 5526 5525 5524 5523 5522 5521 5520 5519 5518 5517 5516 5515 5514 5513 5511 5510 5509 5508 5507 5506 5505 5504 5503 5502 5501 5500 5499 5497
5556 5556 5556 5555 5555 5555 5555 5555 5555 5555 5555 5555 5554 5554 5554 5553 5553 5552 5552 5552 5552 5551 5551 5550 5550 5549 5548 5548 5547 5546 5545 5544 5544 5545 5545 5545 5544 5543 5541 5541 5541 5541 5540 5538 5537 5537 5536 5534 5532 5531 5530 5529 5528 5527 5526 5525 5524 5523 5522 5521 5520 5519 5518 5517 5516 5515 5514 5513 5512 5510 5509 5508 5507 5506 5505 5504 5503 5502 5500 5500 5498 5497 5496 5495 5494 5493
5552 5552 5552 5552 5552 5552 5551 5551 5551 5551 5551 5551 5550 5550 5550 5550 5549 5549 5549 5548 5548 5548 5548 5547 5546 5545 5545 5545 5544 5542 5541 5540 5540 5540 5541 5541 5540 5539 5538 5537 5537 5537 5536 5535 5534 5533 5532 5530 5529 5527 5526 5525 5524 5523 5522 5520 5520 5518 5517 5517 5516 5515 5514 5513 5512 5511 5510 5509 5507 5506 5505 5504 5503 5501 5500 5499 5498 5497 5496 5495 5494 5492 5491 5490 5490 5489
5549 5549 5549 5548 5548 5548 5548 5548 5548 5548 5547 5547 5547 5547 5546 5546 5546 5545 5545 5544 5545 5545 5544 5543 5542 5542 5541 5540 5540 5539 5538 5537 5536 5536 5537 5537 5536 5535 5534 5533 5533 5533 5532 5531 5530 5530 5528 5527 5525 5523 5522 5521 5520 5519 5517 5516 5515 5514 5513 5513 5512 5511 5510 5509 5508 5507 5505 5504 5503 5502 5500 5499 5498 5497 5496 5495 5494 5493 5491 5490 5489 5488 5487 5486 5485 5484
5545 5545 5545 5545 5545 5545 5544 5544 5544 5544 5544 5544 5544 5543 5543 5543 5542 5542 5541 5541 5541 5541 5540 5539 5539 5539 5538 5537 5536 5535 5534 5533 5532 5532 5533 5533 5532 5531 5530 5530 5529 5528 5528 5527 5527 5526 5525 5523 5521 5520 5519 5517 5516 5515 5514 5512 5511 5510 5510 5509 5508 5507 5505 5505 5504 5502 5501 5500 5499 5497 5496 5495 5494 5493 5492 5490 5489 5488 5487 5485 5484 5483 5482 5481 5480 5479
5541 5541 5541 5541 5541 5541 5541 5540 5540 5540 5540 5540 5540 5540 5539 5539 5539 5538 5538 5538 5538 5537 5536 5535 5535 5535 5535 5534 5533 5532 5530 5529 5529 5529 5530 5529 5528 5527 5526 5526 5525 5524 5524 5523 5523 5522 5521 5520 5518 5516 5515 5514 5512 5511 5510 5509 5508 5507 5506 5505 5504 5502 5501 5500 5499 5498 5497 5496 5495 5493 5492 5491 5490 5489 5487 5486 5485 5484 5482 5481 5480 5479 5478 5477 5475 5475
5538 5538 5538 5538 5537 5537 5537 5537 5537 5537 5537 5537 5536 5536 5536 5535 5535 5535 5534 5534 5534 5534 5533 5532 5532 5531 5531 5530 5530 5528 5527 5525 5525 5526 5526 5525 5524 5523 5523 5522 5520 5520 5520 5519 5519 5518 5518 5517 5515 5513 5512 5510 5509 5507 5506 5505 5504 5503 5502 5501 5500 5498 5497 5496 5495 5494 5493 5491 5490 5489 5488 5487 5485 5484 5483 5482 5480 5479 5478 5476 5475 5474 5473 5472 5471 5470
5535 5535 5535 5534 5534 5534 5534 5534 5534 5533 5533 5533 5533 5533 5532 5532 5532 5531 5531 5530 5530 5530 5530 5529 5528 5528 5527 5527 5526 5525 5523 5522 5522 5522 5522 5522 5520 5520 5520 5518 5517 5515 5515 5515 5515 5514 5514 5513 5512 5511 5509 5507 5505 5504 5502 5501 5500 5499 5498 5497 5496 5494 5493 5492 5491 5490 5489 5487 5486 5485 5484 5482 5481 5480 5479 5477 5476 5475 5473 5472 5470 5469 5468 5466 5465 5465
5531 5531 5531 5531 5530 5530 5530 5530 5530 5530 5530 5530 5529 5529 5529 5529 5528 5528 5527 5527 5527 5526 5526 5525 5525 5524 5524 5523 5522 5521 5520 5519 5518 5518 5518 5518 5517 5516 5516 5515 5513 5512 5511 5511 5510 5510 5509 5509 5508 5507 5506 5504 5502 5500 5499 5497 5496 5495 5494 5493 5492 5490 5489 5488 5487 5485 5485 5483 5482 5480 5479 5478 5477 5475 5474 5473 5471 5470 5468 5467 5465 5464 5462 5461 5460 5459
5527 5527 5527 5527 5527 5527 5527 5527 5527 5526 5526 5526 5526 5525 5525 5525 5525 5524 5524 5524 5523 5523 5522 5522 5521 5520 5520 5519 5519 5518 5516 5515 5515 5515 5515 5514 5513 5512 5512 5511 5510 5509 5508 5507 5506 5506 5505 5505 5504 5503 5502 5501 5499 5497 5495 5494 5493 5492 5490 5489 5488 5487 5485 5484 5483 5482 5480 5480 5478 5477 5475 5474 5472 5471 5470 5468 5466 5465 5464 5462 5460 5459 5457 5456 5455 5454
5524 5524 5524 5524 5523 5523 5523 5523 5523 5523 5523 5522 5522 5522 5521 5521 5521 5520 5520 5520 5519 5519 5518 5518 5517 5517 5516 5515 5515 5514 5513 5512 5511 5511 5510 5510 5510 5509 5508 5507 5506 5505 5504 5503 5503 5502 5501 5501 5500 5500 5498 5497 5496 5494 5492 5490 5489 5488 5487 5485 5484 5483 5482 5480 5479 5478 5477 5476 5474 5473 5471 5470 5468 5467 5465 5464 5462 5460 5459 5457 5455 5454 5453 5451 5450 5449
5520 5520 5520 5520 5520 5520 5520 5520 5520 5520 5519 5519 5519 5519 5518 5518 5517 5517 5516 5516 5515 5515 5515 5514 5514 5513 5512 5512 5511 5510 5509 5508 5508 5507 5507 5506 5506 5505 5505 5504 5503 5502 5501 5500 5499 5499 5498 5497 5496 5495 5495 5493 5492 5491 5489 5487 5486 5485 5483 5482 5481 5479 5478 5477 5475 5475 5473 5472 5471 5469 5468 5466 5465 5463 5461 5460 5458 5456 5455 5453 5451 5450 5448 5447 5446 5445
5517 5517 5517 5517 5517 5517 5516 5516 5516 5516 5516 5515 5515 5515 5515 5514 5514 5513 5513 5513 5512 5512 5511 5510 5510 5509 5509 5508 5507 5506 5506 5505 5504 5504 5503 5503 5502 5502 5501 5500 5499 5499 5498 5496 5495 5495 5494 5493 5493 5492 5491 5490 5488 5487 5485 5484 5483 5481 5480 5478 5477 5476 5474 5473 5472 5471 5470 5468 5467 5465 5464 5462 5461 5460 5458 5456 5454 5453 5451 5449 5447 5446 5444 5443 5441 5440
5514 5514 5513 5513 5513 5513 5513 5513 5513 5512 5512 5512 5512 5511 5511 5511 5510 5510 5510 5509 5509 5508 5508 5507 5506 5506 5505 5504 5504 5503 5502 5501 5501 5500 5500 5499 5499 5498 5498 5497 5496 5495 5494 5493 5492 5491 5491 5490 5489 5488 5487 5486 5485 5484 5482 5481 5479 5478 5476 5475 5474 5472 5471 5470 5468 5467 5466 5465 5463 5462 5460 5459 5457 5455 5454 5452 5450 5449 5447 5445 5444 5442 5440 5439 5437 5435
5511 5510 5510 5510 5510 5510 5510 5509 5509 5509 5509 5509 5508 5508 5508 5507 5507 5507 5506 5506 5505 5505 5504 5504 5503 5502 5501 5501 5500 5499 5499 5498 5497 5497 5496 5495 5495 5495 5494 5493 5492 5491 5490 5490 5489 5488 5487 5486 5485 5485 5484 5482 5481 5480 5479 5477 5476 5475 5473 5472 5471 5469 5467 5466 5465 5463 5462 5461 5459 5458 5456 5455 5453 5451 5450 5448 5447 5445 5443 5442 5440 5438 5436 5434 5433 5431
5508 5507 5507 5507 5507 5506 5506 5506 5505 5505 5505 5505 5505 5505 5504 5504 5504 5503 5503 5502 5502 5501 5501 5500 5500 5499 5498 5497 5496 5495 5495 5495 5494 5493 5493 5492 5492 5491 5490 5490 5489 5488 5487 5486 5485 5485 5484 5483 5482 5481 5480 5479 5477 5476 5475 5473 5472 5471 5470 5469 5468 5466 5465 5463 5461 5459 5458 5457 5455 5454 5452 5451 5449 5448 5446 5445 5443 5441 5440 5438 5436 5434 5432 5430 5428 5426
5505 5505 5504 5504 5504 5503 5503 5502 5502 5502 5502 5502 5501 5501 5501 5501 5500 5500 5500 5499 5499 5498 5498 5497 5496 5495 5495 5494 5493 5492 5491 5491 5490 5490 5489 5489 5488 5488 5487 5486 5485 5485 5484 5483 5482 5481 5480 5479 5478 5477 5476 5475 5474 5473 5471 5470 5469 5468 5467 5465 5465 5463 5462 5459 5457 5455 5454 5453 5451 5450 5448 5447 5445 5444 5443 5441 5439 5438 5436 5434 5432 5430 5428 5426 5424 5422
5502 5502 5501 5501 5501 5500 5500 5500 5499 5499 5499 5499 5498 5498 5498 5498 5497 5497 5496 5496 5495 5495 5495 5494 5493 5492 5491 5490 5489 5489 5488 5488 5487 5486 5486 5485 5485 5484 5484 5483 5482 5481 5480 5480 5479 5478 5477 5476 5475 5473 5472 5471 5470 5469 5468 5467 5465 5464 5463 5462 5461 5460 5459 5456 5454 5452 5450 5449 5447 5446 5444 5443 5442 5441 5439 5438 5436 5434 5432 5430 5428 5426 5423 5421 5419 5416
5500 5499 5499 5498 5498 5497 5497 5497 5496 5496 5496 5496 5495 5495 5495 5495 5494 5494 5493 5493 5493 5492 5491 5491 5490 5490 5488 5487 5486 5485 5485 5484 5484 5483 5483 5482 5481 5481 5480 5479 5478 5478 5477 5476 5475 5474 5473 5472 5471 5470 5469 5468 5467 5465 5465 5463 5462 5461 5460 5459 5457 5456 5454 5453 5451 5449 5447 5445 5443 5442 5440 5439 5438 5437 5436 5434 5432 5430 5428 5426 5424 5421 5419 5416 5414 5411
5497 5497 5496 5496 5495 5495 5495 5494 5494 5494 5494 5493 5493 5492 5492 5491 5491 5491 5490 5490 5490 5489 5488 5488 5487 5486 5485 5484 5484 5483 5482 5481 5481 5480 5480 5479 5478 5477 5476 5475 5475 5474 5473 5472 5471 5470 5470 5469 5467 5466 5465 5465 5463 5462 5461 5460 5459 5457 5456 5455 5453 5452 5450 5449 5447 5445 5443 5441 5440 5438 5437 5436 5435 5434 5432 5430 5429 5426 5424 5421 5419 5416 5414 5411 5408 5405
5495 5495 5494 5494 5493 5493 5492 5492 5492 5491 5491 5490 5490 5490 5489 5489 5488 5488 5487 5487 5487 5486 5485 5485 5484 5483 5482 5481 5481 5480 5479 5479 5478 5477 5476 5476 5475 5474 5473 5472 5471 5470 5469 5468 5468 5467 5466 5465 5464 5463 5462 5461 5460 5459 5457 5456 5455 5454 5453 5451 5449 5448 5446 5445 5443 5441 5440 5438 5437 5435 5433 5432 5431 5430 5429 5427 5425 5422 5420 5417 5414 5411 5408 5405 5402 5399
5494 5493 5492 5492 5491 5491 5490 5490 5489 5489 5488 5488 5487 5487 5486 5486 5485 5485 5485 5484 5484 5483 5483 5482 5481 5480 5479 5478 5478 5477 5476 5476 5475 5474 5473 5472 5471 5470 5470 5469 5467 5466 5465 5465 5464 5463 5462 5461 5460 5459 5458 5457 5456 5455 5454 5452 5451 5450 5449 5447 5446 5444 5442 5440 5439 5437 5436 5435 5433 5432 5430 5428 5427 5425 5425 5423 5421 5418 5415 5412 5409 5406 5402 5399 5396 5393
5492 5491 5490 5490 5489 5489 5488 5487 5487 5486 5486 5485 5485 5484 5484 5483 5483 5482 5482 5481 5481 5480 5480 5479 5478 5477 5476 5475 5475 5475 5474 5473 5472 5471 5470 5469 5468 5467 5466 5465 5464 5463 5462 5461 5460 5460 5459 5458 5456 5455 5455 5454 5453 5451 5450 5449 5448 5446 5445 5443 5442 5440 5439 5437 5435 5433 5432 5431 5429 5428 5426 5425 5423 5421 5420 5418 5416 5414 5411 5408 5404 5400 5397 5393 5390 5387
5490 5489 5489 5488 5487 5486 5485 5485 5484 5484 5483 5482 5482 5481 5480 5480 5480 5480 5479 5479 5478 5478 5477 5476 5475 5474 5474 5473 5472 5472 5471 5470 5469 5468 5467 5466 5465 5464 5463 5462 5461 5460 5459 5458 5457 5456 5455 5454 5453 5452 5451 5450 5449 5448 5447 5445 5444 5442 5441 5440 5438 5436 5435 5433 5431 5430 5428 5427 5425 5424 5422 5420 5418 5416 5415 5413 5412 5410 5407 5403 5400 5395 5391 5387 5384 5381
5488 5488 5487 5486 5485 5484 5483 5482 5482 5481 5480 5480 5479 5478 5478 5477 5477 5476 5476 5476 5475 5475 5474 5473 5472 5471 5471 5470 5469 5469 5468 5467 5466 5465 5464 5463 5462 5461 5460 5459 5458 5457 5456 5455 5455 5454 5453 5451 5450 5448 5447 5446 5445 5445 5444 5442 5440 5439 5437 5436 5434 5433 5431 5430 5428 5426 5425 5423 5421 5420 5417 5415 5413 5411 5409 5407 5406 5404 5402 5399 5395 5390 5386 5381 5378 5375
5486 5486 5485 5484 5483 5482 5481 5480 5480 5479 5478 5477 5476 5475 5475 5475 5474 5474 5473 5473 5472 5472 5471 5470 5470 5469 5468 5467 5466 5466 5465 5464 5463 5462 5461 5460 5459 5458 5457 5456 5455 5454 5454 5453 5452 5451 5450 5449 5447 5445 5444 5442 5441 5441 5440 5438 5437 5435 5434 5432 5430 5429 5427 5426 5425 5423 5421 5420 5417 5415 5413 5410 5408 5406 5404 5401 5399 5398 5396 5394 5390 5385 5380 5375 5372 5369
5484 5484 5483 5482 5481 5480 5480 5479 5478 5476 5475 5475 5474 5473 5472 5472 5471 5470 5470 5470 5470 5469 5468 5468 5467 5466 5465 5464 5464 5463 5462 5461 5460 5459 5458 5457 5456 5455 5454 5453 5453 5452 5451 5450 5449 5448 5447 5446 5445 5443 5441 5439 5438 5437 5435 5434 5433 5431 5430 5429 5427 5425 5424 5423 5421 5420 5418 5416 5413 5411 5409 5406 5403 5401 5398 5395 5393 5391 5389 5387 5384 5380 5375 5370 5366 5364